Location: Stara Lesna
(49.1528°N, 20.2911°E)
Time: 03:55:15
(UTC+02:00)

CZ-2C R/B - Pass Details

Date: 21 September 2019
Orbit: 502 x 569 km, 97.6° (Epoch: 18 October)

Event Time Altitude Azimuth Distance (km) Brightness Sun altitude
Rises 03:45:05 0° 15° (NNE) 2,751 7.1 -25.1°
Reaches altitude 10° 03:47:16 10° 18° (NNE) 1,841 6.1 -24.8°
Enters shadow 03:51:06 68° 86° (E) 591 3.0 -24.3°
